Location: College Park
(38.9810°N, 76.9370°W)
Time: 08:43:15
(UTC-05:00)

Vanguard 1 - All Passes

Search period start: 25 February 2018 00:00
Search period end: 07 March 2018 00:00
Orbit: 650 x 3833 km, 34.2° (Epoch: 24 February)

Date Brightness Start Highest point End Pass type
(mag) Time Alt. Az. Time Alt. Az. Time Alt. Az.
25 Feb - 10:55:41 10° SSW 11:12:43 31° SSE 11:24:17 10° E daylight
25 Feb - 13:18:54 10° SW 13:36:13 56° SSE 13:45:43 10° E daylight
25 Feb - 15:45:27 10° W 15:58:19 67° S 16:05:09 10° ESE daylight
25 Feb - 18:11:03 10° W 18:18:36 37° SSW 18:23:27 10° SE visible
26 Feb - 08:59:35 10° SSE 09:09:53 15° SE 09:18:46 10° ESE daylight
26 Feb - 11:15:28 10° SSW 11:33:58 39° SSE 11:45:53 10° E daylight
26 Feb - 13:40:07 10° WSW 13:57:24 62° SSE 14:06:40 10° E daylight
26 Feb - 16:07:01 10° W 16:19:20 64° S 16:25:55 10° ESE daylight
26 Feb - 18:32:38 10° W 18:39:12 28° SSW 18:43:41 10° SSE visible
27 Feb - 09:16:26 10° S 09:31:03 22° SE 09:42:50 10° E daylight
27 Feb - 11:35:44 10° SW 11:55:13 46° SSE 12:07:13 10° E daylight
27 Feb - 14:01:32 10° WSW 14:18:35 67° S 14:27:35 10° E daylight
27 Feb - 16:28:35 10° W 16:40:17 59° SSW 16:46:38 10° ESE daylight
27 Feb - 18:54:30 10° W 18:59:40 20° SW 19:03:32 10° S visible
28 Feb - 09:34:51 10° SSW 09:52:13 28° SE 10:05:28 10° E daylight
28 Feb - 11:56:24 10° SW 12:16:28 54° SSE 12:28:22 10° E daylight
28 Feb - 14:23:07 10° WSW 14:39:45 70° S 14:48:28 10° E daylight
28 Feb - 16:50:10 10° W 17:01:07 51° SSW 17:07:16 10° SE daylight
28 Feb - 19:17:06 10° WSW 19:20:02 13° SW 19:22:33 10° SSW visible
01 Mar - 07:44:10 10° SE 07:49:19 11° SE 07:54:15 10° ESE daylight
01 Mar - 09:54:07 10° SSW 10:13:24 36° SSE 10:27:26 10° E daylight
01 Mar - 12:17:24 10° WSW 12:37:44 61° SSE 12:49:26 10° E daylight
01 Mar - 14:44:45 10° W 15:00:53 70° S 15:09:18 10° ESE daylight
01 Mar - 17:11:46 10° W 17:21:51 42° SSW 17:27:44 10° SE daylight
02 Mar - 07:57:50 10° SSE 08:10:20 17° SE 08:21:36 10° ESE daylight
02 Mar - 10:13:59 10° SSW 10:34:36 43° SSE 10:49:02 10° E daylight
02 Mar - 12:38:40 10° WSW 12:59:01 66° SSE 13:10:26 10° E daylight
02 Mar - 15:06:27 10° W 15:21:59 68° S 15:30:06 10° ESE daylight
02 Mar - 17:33:28 10° W 17:42:26 33° SW 17:47:59 10° SSE daylight
03 Mar - 08:15:12 10° S 08:31:20 24° SE 08:45:20 10° E daylight
03 Mar - 10:34:18 10° SW 10:55:50 51° SSE 11:10:23 10° E daylight
03 Mar - 13:00:09 10° WSW 13:20:17 71° S 13:31:23 10° E daylight
03 Mar - 15:28:09 10° W 15:43:00 63° SSW 15:50:50 10° ESE daylight
03 Mar - 17:55:23 10° W 18:02:52 24° SW 18:07:53 10° SSE daylight
04 Mar - 08:33:49 10° SSW 08:52:21 31° SE 09:07:54 10° E daylight
04 Mar - 10:55:00 10° SW 11:17:07 58° SSE 11:31:35 10° E daylight
04 Mar - 13:21:46 10° WSW 13:41:34 73° S 13:52:18 10° E daylight
04 Mar - 15:49:50 10° W 16:03:54 56° SSW 16:11:28 10° SE daylight
04 Mar - 18:17:47 10° W 18:23:10 17° SW 18:27:13 10° S daylight
05 Mar - 06:42:27 10° SSE 06:49:39 12° SE 06:56:44 10° ESE daylight
05 Mar - 08:53:12 10° SSW 09:13:24 38° SE 09:29:53 10° E daylight
05 Mar - 11:16:00 10° WSW 11:38:27 64° SSE 11:52:42 10° E daylight
05 Mar - 13:43:29 10° W 14:02:49 73° S 14:13:12 10° ESE daylight
05 Mar - 16:11:34 10° W 16:24:39 47° SSW 16:31:56 10° SE daylight
05 Mar - 18:42:23 10° WSW 18:43:21 10° SW 18:44:17 10° SW visible
06 Mar - 06:57:17 10° SSE 07:10:25 19° SE 07:23:11 10° E daylight
06 Mar - 09:13:07 10° SSW 09:34:32 46° SSE 09:51:31 10° E daylight
06 Mar - 11:37:15 10° WSW 11:59:49 70° SSE 12:13:45 10° E daylight
06 Mar - 14:05:15 10° W 14:24:01 71° S 14:34:02 10° ESE daylight
06 Mar - 16:33:21 10° W 16:45:16 38° SW 16:52:11 10° SSE daylight
